Home > Weather > Yavatmal > Past weeks

Flag for India Weather for the Past 2 Weeks in Yavatmal, Maharashtra, India

Now
90 °F

Scattered clouds.


Feels Like: 88 °F
Forecast: 72 / 89 °F
Wind: 6 mph from South

Location: Nagpur Sonegaon

Current Time: Feb 6, 2016 at 6:05:52 PM

Latest Report: Feb 6, 2016 at 5:00 PM


Visibility: 2 mi

Pressure: 29.86 "Hg

Humidity: 31%

Dew point: 55 °F

Location of YavatmalLocation

Historic Weather in Yavatmal — Graph

°F

Yavatmal Temperature Yesterday

Maximum temperature yesterday: 90 °F (at 3:00 PM)
Minimum temperature yesterday: 59 °F (at 6:30 AM)
Average temperature yesterday: 73 °F

High & Low Weather Summary for the Past Weeks

 TemperatureHumidityPressure
High97 °F (Jan 31, 3:30 PM)100% (Feb 3, 7:30 AM)30.27 "Hg (Feb 3, 7:30 AM)
Low48 °F (Jan 23, 4:30 AM)18% (Feb 4, 4:00 PM)29.86 "Hg (Feb 6, 3:00 PM)
Average74 °F44%30.01 "Hg
* Reported Jan 22 4:30 PM — Feb 6 5:00 PM, Yavatmal, Weather by CustomWeather, © 2016

Note: Actual official high and low records may vary slightly from our data, if they occured in-between our weather recording intervals... More about our weather records

Advertising

Yavatmal Weather History for the Previous 24 Hours

 ConditionsComfort  
Time TempWeatherWind HumidityBarometerVisibility
5:00 PM
Sat, Feb 6
90 °FScattered clouds.6 mph31%29.86 "Hg2 mi
4:00 PM90 °FScattered clouds.8 mph31%29.86 "Hg2 mi
3:30 PM90 °FHaze.7 mph31%29.86 "Hg2 mi
3:00 PM90 °FHaze.7 mph29%29.86 "Hg2 mi
2:30 PM90 °FHaze.9 mph29%29.89 "Hg2 mi
2:00 PM88 °FHaze.8 mph33%29.89 "Hg2 mi
1:30 PM90 °FHaze.8 mph31%29.92 "Hg2 mi
1:00 PM88 °FHaze.13 mph33%29.95 "Hg2 mi
12:30 PM88 °FHaze.7 mph31%29.95 "Hg2 mi
12:00 PM86 °FHaze.2 mph35%29.98 "Hg2 mi
11:30 AM86 °FHaze.3 mph35%29.98 "Hg2 mi
11:00 AM82 °FHaze.6 mph35%29.98 "Hg2 mi
10:30 AM81 °FHaze.5 mph30%29.98 "Hg2 mi
9:30 AM75 °FHaze.5 mph36%29.98 "Hg1 mi
9:00 AM73 °FHaze.6 mph36%29.98 "Hg1 mi
8:00 AM64 °FHaze.2 mph56%29.95 "Hg1 mi
7:30 AM61 °FHaze.2 mph59%29.95 "Hg1 mi
6:30 AM57 °FFog.2 mph77%29.92 "Hg1 mi
6:00 AM59 °FHaze.2 mph72%29.92 "Hg1 mi
5:00 AM61 °FHaze.No wind59%29.89 "Hg2 mi
4:30 AM63 °FHaze.3 mph56%29.89 "Hg2 mi
4:00 AM61 °FHaze.3 mph55%29.89 "Hg2 mi
3:30 AM61 °FHaze.2 mph55%29.89 "Hg2 mi
3:00 AM63 °FHaze.2 mph56%29.89 "Hg2 mi
2:30 AM63 °FHaze.2 mph56%29.89 "Hg2 mi
2:00 AM64 °FHaze.2 mph37%29.89 "Hg2 mi
1:30 AM63 °FHaze.5 mph56%29.92 "Hg2 mi
1:00 AM66 °FHaze.2 mph52%29.92 "Hg2 mi
12:30 AM70 °FHaze.3 mph46%29.92 "Hg2 mi
11:30 PM
Fri, Feb 5
70 °FHaze.No wind40%29.95 "Hg2 mi
11:00 PM66 °FMild.N/A46%29.95 "HgN/A
10:00 PM70 °FMild.N/A40%29.98 "HgN/A
9:30 PM72 °FHaze.No wind38%29.98 "Hg2 mi
Weather by CustomWeather, © 2016

See weather overviewHow to use our weather pages